{"data":{"norad_id":62886,"intl_designator":"2025-024H","name":"STARLINK-11365 [DTC]","alt_names":[],"object_type":"PAYLOAD","status":"ACTIVE","operator":null,"country":"US","launch_date":"2025-02-04","launch_site_code":"AFETR","launch_vehicle":null,"mission":null,"orbit_class":"UNKNOWN","rcs_meters":null,"size_class":null,"mass_kg":null,"dimensions":null,"purposes":["comms"],"wikipedia_slug":null,"has_3d_model":false,"image_url":null,"decayed_at":null,"tle_current":{"epoch":"2026-05-25T04:52:59.102112Z","epoch_age_seconds":67553,"freshness":"FRESH","line1":"1 62886U 25024H   26145.20346183  .00269703  00000+0  20162-2 0  9997","line2":"2 62886  43.0001  79.9498 0002205 278.7611  81.3007 15.71094624 75502","mean_motion":15.71094624,"eccentricity":0.0002205,"inclination_deg":43.0001,"raan_deg":79.9498,"arg_perigee_deg":278.7611,"mean_anomaly_deg":81.3007,"bstar":0.0020162,"rev_number":7550,"period_min":91.655841602574,"perigee_km":354.28257089433,"apogee_km":357.25222273333,"semimajor_km":6733.9043968138,"source":"CELESTRAK","updated_at":"2026-05-25T13:38:19.789589Z"}}}